Simultaneous Nadir Overpasses (SNOs) Predictions

Prediction of SNOs between AQUA and METOP-A Satellite Orbit:

Table of predicted SNOs for the next 14.0 days since TLE Epoch: 9/7/2019
Index Date (AQUA) Time (AQUA) Lat,Lon (AQUA) SZA (AQUA ) Date (METOP-A) Time (METOP-A) Lat,Lon (METOP-A) SZA (METOP-A ) Distance(km) Time Diff (sec)
1 09/08/2019 20:52:32 -75.40, 37.31 110.05 09/08/2019 20:51:57 -75.41, 37.23 110.03 2.36 35
2 09/08/2019 21:42:01 75.46,-155.21 70.03 09/08/2019 21:42:36 75.44,-155.34 70.02 3.77 35
3 09/11/2019 16:26:46 -75.42, 103.71 108.98 09/11/2019 16:26:20 -75.44, 103.67 108.95 2.76 26
4 09/11/2019 17:16:15 75.48, -88.83 71.11 09/11/2019 17:16:59 75.47, -88.90 71.10 2.10 44
5 09/14/2019 12:01:01 -75.44, 170.09 107.89 09/14/2019 12:00:44 -75.47, 170.11 107.86 3.57 17
6 09/14/2019 12:50:30 75.50, -22.46 72.20 09/14/2019 12:51:23 75.50, -22.47 72.19 0.73 53
7 09/17/2019 06:45:44 75.14, 69.70 72.85 09/17/2019 06:44:35 75.06, 67.96 72.85 50.68 69
8 09/17/2019 07:35:16 -75.46,-123.54 106.79 09/17/2019 07:35:09 -75.45,-123.59 106.80 2.14 7
9 09/17/2019 08:24:45 75.54, 43.89 73.31 09/17/2019 08:25:47 75.52, 43.97 73.29 2.69 62
10 09/20/2019 02:20:03 75.43, 135.36 74.24 09/20/2019 02:18:51 75.42, 135.36 74.25 0.73 72
11 09/20/2019 03:09:30 -75.49, -57.19 105.67 09/20/2019 03:09:32 -75.47, -57.16 105.70 2.53 2




NCC Satellite Simultaneous Nadir Overpasses (SNOs) Prediction Service
